SM7SJR-13 Weather Reports


Display with metric or nautical units.
time (UTC)temp
F
wind
direction
speed
MPH
gust
MPH
rain 1hr
in
rain 24hr
in
rain mn
in
humidity
%
barometer
mb
20260903121504 64 206 5.0 13.0 0.00 0.01 0.01 82 1007.6
20260903120004 64 190 3.0 10.0 0.00 0.01 0.01 82 1007.9
20260903114503 63 211 6.0 14.0 0.00 0.01 0.01 82 1007.9
20260903113003 64 237 10.0 14.0 0.00 0.01 0.01 81 1008.1
20260903111503 63 215 6.0 13.0 0.00 0.01 0.01 83 1008.2
20260903110004 63 213 7.0 17.0 0.00 0.01 0.01 81 1008.4
20260903103004 62 203 7.0 13.0 0.00 0.01 0.01 85 1008.6
20260903101504 62 215 9.0 17.0 0.00 0.01 0.01 82 1008.9
20260903100004 63 237 10.0 15.0 0.00 0.01 0.01 77 1008.9
20260903094503 63 211 9.0 17.0 0.00 0.01 0.01 77 1008.9
20260903093004 65 212 9.0 16.0 0.00 0.01 0.01 74 1009.0
20260903091503 65 234 10.0 15.0 0.00 0.01 0.01 72 1009.0
20260903090004 63 211 8.0 15.0 0.00 0.01 0.01 74 1009.0
20260903084506 63 229 6.0 20.0 0.00 0.01 0.01 75 1009.3
20260903083004 64 241 10.0 16.0 0.00 0.01 0.01 74 1009.3
20260903081503 61 266 7.0 14.0 0.00 0.01 0.01 82 1009.5
20260903080004 61 183 4.0 12.0 0.01 0.01 0.01 83 1009.6
20260903074503 59 218 5.0 14.0 0.01 0.01 0.01 82 1009.7
20260903073004 60 234 5.0 12.0 0.01 0.01 0.01 82 1009.7
20260903064504 57 236 6.0 12.0 0.00 0.00 0.00 89 1010.0
20260903063004 56 230 3.0 12.0 0.00 0.00 0.00 92 1010.0
20260903054504 53 235 3.0 9.0 0.00 0.00 0.00 95 1010.3
20260903053004 52 230 5.0 8.0 0.00 0.00 0.00 96 1010.2
20260903044504 50 217 5.0 7.0 0.00 0.00 0.00 96 1010.2
20260903043004 49 211 5.0 7.0 0.00 0.00 0.00 97 1010.2
20260903041504 49 215 6.0 7.0 0.00 0.00 0.00 96 1010.2
20260903034503 50 217 4.0 9.0 0.00 0.00 0.00 96 1010.2
20260903031503 50 208 5.0 7.0 0.00 0.00 0.00 96 1010.4
20260903030004 50 207 5.0 7.0 0.00 0.00 0.00 96 1010.4
20260903023003 52 224 3.0 6.0 0.00 0.00 0.00 96 1010.6
20260903021503 52 230 5.0 7.0 0.00 0.00 0.00 96 1010.6
20260903020004 53 231 5.0 8.0 0.00 0.00 0.00 96 1010.6
20260903014503 53 231 5.0 9.0 0.00 0.00 0.00 96 1010.6
20260903013004 53 236 6.0 12.0 0.00 0.00 0.00 96 1010.6
20260903011503 53 228 6.0 10.0 0.00 0.00 0.00 96 1010.6
20260903010003 53 224 5.0 9.0 0.00 0.00 0.00 97 1010.7
20260903004503 53 218 5.0 8.0 0.00 0.00 0.00 96 1010.6
20260903003004 53 217 5.0 8.0 0.00 0.00 0.00 96 1010.6
20260903000004 54 216 5.0 7.0 0.00 0.00 0.00 96 1010.6
20260902234503 54 215 5.0 7.0 0.00 0.00 0.00 96 1010.6
20260902233003 54 219 5.0 7.0 0.00 0.00 0.00 95 1010.6
20260902231504 54 210 5.0 7.0 0.00 0.00 0.00 95 1010.6
20260902230004 55 227 4.0 7.0 0.00 0.00 0.00 94 1010.7
20260902224503 56 231 4.0 7.0 0.00 0.00 0.00 94 1010.6
20260902220003 58 225 5.0 9.0 0.00 0.00 0.00 93 1010.5
20260902214504 58 233 5.0 8.0 0.00 0.00 0.00 93 1010.3
20260902213004 59 212 4.0 10.0 0.00 0.00 0.00 94 1010.3
20260902210004 59 223 5.0 9.0 0.00 0.00 0.00 94 1010.1
20260902204503 59 227 5.0 9.0 0.00 0.00 0.00 93 1010.1
20260902203004 60 229 5.0 9.0 0.00 0.00 0.00 93 1010.1
20260902201504 60 219 6.0 10.0 0.00 0.00 0.00 93 1010.0
20260902200005 61 214 7.0 12.0 0.00 0.00 0.00 92 1010.0
20260902194505 61 219 6.0 12.0 0.00 0.00 0.00 92 1010.0
20260902193005 61 216 7.0 10.0 0.00 0.00 0.00 91 1010.0
20260902191504 61 217 5.0 9.0 0.00 0.00 0.00 90 1010.0
20260902190003 62 228 6.0 10.0 0.00 0.00 0.00 89 1010.0
20260902184503 62 219 7.0 13.0 0.00 0.00 0.00 89 1010.0
20260902183003 62 225 6.0 12.0 0.00 0.00 0.00 89 1009.8
20260902181503 62 226 6.0 12.0 0.00 0.00 0.00 88 1009.8
20260902174504 63 214 7.0 12.0 0.00 0.00 0.00 87 1009.8
20260902173004 63 208 5.0 12.0 0.00 0.00 0.00 86 1009.9
20260902171504 64 230 6.0 12.0 0.00 0.00 0.00 85 1010.1
20260902170004 64 214 3.0 12.0 0.00 0.00 0.00 84 1010.1
20260902163004 66 232 7.0 13.0 0.00 0.00 0.00 81 1010.1
20260902161504 66 222 11.0 17.0 0.00 0.00 0.00 80 1010.1
20260902160007 67 234 7.0 16.0 0.00 0.00 0.00 79 1010.1
20260902154504 68 246 8.0 18.0 0.00 0.00 0.00 75 1010.0
20260902153003 69 241 10.0 15.0 0.00 0.00 0.00 73 1009.9
20260902151505 70 241 12.0 23.0 0.00 0.00 0.00 69 1010.1
20260902150003 69 233 7.0 20.0 0.00 0.00 0.00 74 1010.1
20260902144504 68 236 10.0 24.0 0.00 0.00 0.00 71 1010.1
20260902141503 73 251 12.0 20.0 0.00 0.00 0.00 64 1010.0
20260902140004 72 226 10.0 25.0 0.00 0.00 0.00 66 1010.0
20260902134504 72 240 13.0 21.0 0.00 0.00 0.00 64 1010.0
20260902131504 74 217 13.0 21.0 0.00 0.00 0.00 62 1010.0
20260902124504 72 227 6.0 15.0 0.00 0.00 0.00 65 1010.0